Weather History for Corinth, MS

Change the Weather History Date:

Tuesday, October 30, 2012

  Actual Average Record
Temperature  
Mean Temperature 48 °F -  
Max Temperature 59 °F 72 °F 90 °F (1937)
Min Temperature 37 °F 45 °F 29 °F (1952)
Degree Days  
Heating Degree Days 17    
Moisture  
Dew Point 26 °F    
Average Humidity 48    
Maximum Humidity 75    
Minimum Humidity 23    
Precipitation  
Precipitation 0.00 in - - ()
Sea Level Pressure  
Sea Level Pressure 29.96 in    
Wind  
Wind Speed 9 mph (NW)    
Max Wind Speed 20 mph    
Max Gust Speed 26 mph    
Visibility 10 miles    
Events      
Averages and records for this station are not official NWS values.
T = Trace of Precipitation, MM = Missing Value Source: NWS Daily Summary

Daily Weather History Graph

Daily Weather History Graph

Search for Another Location

Airport:

Trip Planner

Search our weather history database for the weather conditions in past years. The results will help you decide how hot, cold, wet, or windy it might be!

Date:

Astronomy

Oct. 30, 2012 Rise Set
Actual Time 7:13 AM CDT 6:01 PM CDT
Civil Twilight 6:47 AM CDT 6:27 PM CDT
Nautical Twilight 6:17 AM CDT 6:57 PM CDT
Astronomical Twilight 5:48 AM CDT 7:27 PM CDT
Moon 6:34 PM CDT (10/30) 7:57 AM CDT (10/30)
Length of Visible Light 11h 39m
Length of Day
10h 47m
Full, 99% of the Moon is Illuminated
Oct 30
Full
Nov 6
Last Quarter
Nov 13
New
Nov 20
First Quarter
Nov 28
Full

Hourly Weather History & Observations

Time (CDT) Temp. Windchill Dew Point Humidity Pressure Visibility Wind Dir Wind Speed Gust Speed Precip Events Conditions
12:05 AM 39.2 °F 35.0 °F 26.6 °F 61% 30.04 in 10.0 mi NW 5.8 mph - N/A   Clear
12:25 AM 37.4 °F 32.8 °F 26.6 °F 65% 30.03 in 10.0 mi WNW 5.8 mph - N/A   Clear
12:45 AM 37.4 °F 32.1 °F 26.6 °F 65% 30.03 in 10.0 mi NW 6.9 mph - N/A   Clear
1:05 AM 39.2 °F 34.2 °F 26.6 °F 61% 30.02 in 10.0 mi NW 6.9 mph - N/A   Clear
1:25 AM 37.4 °F 32.8 °F 26.6 °F 65% 30.02 in 10.0 mi NW 5.8 mph - N/A   Clear
1:45 AM 37.4 °F 32.8 °F 26.6 °F 65% 30.02 in 10.0 mi NW 5.8 mph - N/A   Clear
2:05 AM 37.4 °F 33.8 °F 26.6 °F 65% 30.02 in 10.0 mi NNW 4.6 mph - N/A   Clear
2:25 AM 37.4 °F 32.1 °F 26.6 °F 65% 30.01 in 10.0 mi NW 6.9 mph - N/A   Clear
2:45 AM 37.4 °F 32.1 °F 26.6 °F 65% 30.00 in 10.0 mi NW 6.9 mph - N/A   Clear
3:05 AM 37.4 °F 32.8 °F 26.6 °F 65% 30.00 in 10.0 mi NW 5.8 mph - N/A   Clear
3:25 AM 37.4 °F 32.1 °F 26.6 °F 65% 29.99 in 10.0 mi NW 6.9 mph - N/A   Clear
3:45 AM 37.4 °F 30.8 °F 26.6 °F 65% 29.98 in 10.0 mi NW 9.2 mph - N/A   Clear
4:05 AM 39.2 °F 33.6 °F 26.6 °F 61% 29.99 in 10.0 mi NW 8.1 mph - N/A   Clear
4:25 AM 37.4 °F 32.1 °F 26.6 °F 65% 29.98 in 10.0 mi NW 6.9 mph - N/A   Clear
5:05 AM 39.2 °F 33.6 °F 26.6 °F 61% 29.99 in 10.0 mi NW 8.1 mph - N/A   Clear
5:25 AM 39.2 °F 34.2 °F 26.6 °F 61% 29.99 in 10.0 mi NW 6.9 mph - N/A   Clear
5:45 AM 39.2 °F 33.0 °F 26.6 °F 61% 29.99 in 10.0 mi NW 9.2 mph - N/A   Clear
6:05 AM 39.2 °F 33.6 °F 26.6 °F 61% 29.99 in 10.0 mi NW 8.1 mph - N/A   Clear
6:25 AM 39.2 °F 34.2 °F 26.6 °F 61% 29.99 in 10.0 mi NW 6.9 mph - N/A   Clear
6:45 AM 37.4 °F 31.4 °F 26.6 °F 65% 29.99 in 10.0 mi NW 8.1 mph - N/A   Clear
7:25 AM 37.4 °F 30.8 °F 26.6 °F 65% 29.99 in 10.0 mi NW 9.2 mph - N/A   Clear
7:45 AM 39.2 °F 33.0 °F 26.6 °F 61% 29.99 in 10.0 mi NW 9.2 mph - N/A   Clear
8:05 AM 39.2 °F 33.0 °F 26.6 °F 61% 30.00 in 10.0 mi NW 9.2 mph 16.1 mph N/A   Clear
8:25 AM 41.0 °F 35.2 °F 26.6 °F 57% 30.00 in 10.0 mi NW 9.2 mph 16.1 mph N/A   Clear
8:45 AM 41.0 °F 34.7 °F 26.6 °F 57% 30.00 in 10.0 mi NW 10.4 mph 16.1 mph N/A   Clear
9:05 AM 42.8 °F 37.5 °F 26.6 °F 53% 30.00 in 10.0 mi NW 9.2 mph - N/A   Clear
9:25 AM 44.6 °F 40.2 °F 26.6 °F 49% 30.00 in 10.0 mi NW 8.1 mph 19.6 mph N/A   Clear
9:45 AM 46.4 °F 41.1 °F 26.6 °F 46% 30.00 in 10.0 mi NNW 11.5 mph 18.4 mph N/A   Clear
10:05 AM 48.2 °F - 26.6 °F 43% 30.00 in 10.0 mi NW 12.7 mph 19.6 mph N/A   Clear
10:25 AM 48.2 °F - 26.6 °F 43% 30.00 in 10.0 mi NW 15.0 mph 19.6 mph N/A   Clear
10:45 AM 50.0 °F - 24.8 °F 37% 29.99 in 10.0 mi NW 11.5 mph 21.9 mph N/A   Clear
11:05 AM 50.0 °F - 24.8 °F 37% 29.99 in 10.0 mi NW 16.1 mph 23.0 mph N/A   Clear
11:25 AM 53.6 °F - 23.0 °F 30% 29.98 in 10.0 mi NW 16.1 mph 24.2 mph N/A   Clear
11:45 AM 53.6 °F - 23.0 °F 30% 29.98 in 10.0 mi NW 19.6 mph 26.5 mph N/A   Clear
12:05 PM 53.6 °F - 23.0 °F 30% 29.97 in 10.0 mi NW 15.0 mph 26.5 mph N/A   Clear
12:25 PM 55.4 °F - 23.0 °F 29% 29.96 in 10.0 mi WNW 17.3 mph 23.0 mph N/A   Clear
12:45 PM 57.2 °F - 24.8 °F 29% 29.95 in 10.0 mi WNW 19.6 mph 24.2 mph N/A   Clear
1:05 PM 55.4 °F - 23.0 °F 29% 29.94 in 10.0 mi WNW 13.8 mph 24.2 mph N/A   Clear
1:25 PM 57.2 °F - 23.0 °F 27% 29.93 in 10.0 mi NW 16.1 mph 24.2 mph N/A   Clear
1:45 PM 57.2 °F - 19.4 °F 23% 29.92 in 10.0 mi NW 16.1 mph 26.5 mph N/A   Clear
2:05 PM 57.2 °F - 21.2 °F 25% 29.91 in 10.0 mi NW 11.5 mph 25.3 mph N/A   Clear
2:25 PM 59.0 °F - 24.8 °F 27% 29.91 in 10.0 mi WNW 13.8 mph 21.9 mph N/A   Clear
2:45 PM 59.0 °F - 23.0 °F 25% 29.90 in 10.0 mi NW 16.1 mph 24.2 mph N/A   Clear
3:05 PM 59.0 °F - 23.0 °F 25% 29.89 in 10.0 mi West 17.3 mph 21.9 mph N/A   Clear
3:25 PM 59.0 °F - 21.2 °F 23% 29.89 in 10.0 mi NW 16.1 mph 25.3 mph N/A   Clear
3:45 PM 59.0 °F - 23.0 °F 25% 29.89 in 10.0 mi NW 13.8 mph 19.6 mph N/A   Clear
4:05 PM 59.0 °F - 21.2 °F 23% 29.89 in 10.0 mi NW 16.1 mph 24.2 mph N/A   Clear
4:25 PM 59.0 °F - 23.0 °F 25% 29.89 in 10.0 mi WNW 15.0 mph 21.9 mph N/A   Clear
4:45 PM 59.0 °F - 23.0 °F 25% 29.88 in 10.0 mi WNW 15.0 mph 23.0 mph N/A   Clear
5:05 PM 57.2 °F - 23.0 °F 27% 29.89 in 10.0 mi WNW 17.3 mph 21.9 mph N/A   Clear
5:25 PM 57.2 °F - 23.0 °F 27% 29.89 in 10.0 mi WNW 10.4 mph - N/A   Clear
5:45 PM 55.4 °F - 24.8 °F 31% 29.90 in 10.0 mi WNW 9.2 mph - N/A   Clear
6:05 PM 53.6 °F - 24.8 °F 33% 29.90 in 10.0 mi WNW 9.2 mph - N/A   Clear
6:25 PM 51.8 °F - 26.6 °F 38% 29.91 in 10.0 mi WNW 6.9 mph - N/A   Clear
6:45 PM 50.0 °F - 26.6 °F 40% 29.91 in 10.0 mi WNW 4.6 mph - N/A   Clear
7:05 PM 50.0 °F - 26.6 °F 40% 29.92 in 10.0 mi West 4.6 mph - N/A   Clear
7:45 PM 46.4 °F 45.2 °F 28.4 °F 50% 29.92 in 10.0 mi West 3.5 mph - N/A   Clear
8:25 PM 42.8 °F - 30.2 °F 61% 29.92 in 10.0 mi Calm Calm - N/A   Clear
8:45 PM 41.0 °F - 32.0 °F 70% 29.92 in 10.0 mi Calm Calm - N/A   Clear
9:05 PM 39.2 °F - 32.0 °F 75% 29.92 in 10.0 mi Calm Calm - N/A   Clear
9:45 PM 39.2 °F - 32.0 °F 75% 29.93 in 10.0 mi Calm Calm - N/A   Clear
10:25 PM 44.6 °F 40.7 °F 32.0 °F 61% 29.93 in 10.0 mi WNW 6.9 mph - N/A   Clear
11:05 PM 44.6 °F 42.2 °F 32.0 °F 61% 29.94 in 10.0 mi NW 4.6 mph - N/A   Clear
11:25 PM 42.8 °F - 32.0 °F 66% 29.94 in 10.0 mi Calm Calm - N/A   Clear
11:45 PM 41.0 °F - 32.0 °F 70% 29.94 in 10.0 mi Calm Calm - N/A   Clear